This demonstration page uses our WeatherBlox Daily Observations layout. Learn more.

40.92945, -100.16068

Hourly Observations for August 6, 2016

Temp ( °F °C ) Dew Point ( °F °C ) Humidity (%) Winds ( mph kmh ) Pressure ( in mb ) Visibility ( mi km ) Precip ( " mm )
12:15 am 00:15 Cloudy 67 19.5 57 14 71 71 E 6 9 30.06 1018 10 16.09344 0 0
12:35 am 00:35 Cloudy 67 19.5 57 14 71 71 E 6 9 30.06 1018 10 16.09344 0 0
12:55 am 00:55 Cloudy 66 18.8 59 15 79 79 Calm 30.06 1018 10 16.09344 0 0
1:15 am 01:15 Cloudy 66 19 59 14.9 77 77 Calm 30.06 1018 10 16.09344 0 0
1:35 am 01:35 Cloudy 66 19 59 15.2 79 79 Calm 30.06 1018 10 16.09344 0 0
1:55 am 01:55 Cloudy 66 19 59 14.8 77 77 E 5 7 30.06 1018 10 16.09344 0 0
2:15 am 02:15 Cloudy 66 19 58 14.3 74 74 E 3 6 30.06 1018 10 16.09344 0 0
2:35 am 02:35 Cloudy 66 19.1 58 14.3 74 74 E 3 6 30.06 1018 10 16.09344 0 0
2:55 am 02:55 Cloudy 66 19.1 58 14.2 73 73 E 3 6 30.06 1018 10 16.09344 0 0
3:15 am 03:15 Cloudy 66 18.7 58 14.5 77 77 ENE 5 7 30.03 1017 10 16.09344 0 0
3:35 am 03:35 Cloudy 65 18.5 59 15 80 80 Calm 30.06 1018 10 16.09344 0 0
3:55 am 03:55 Mostly Cloudy 65 18.2 59 15.1 82 82 Calm 30.03 1017 10 16.09344 0 0
4:15 am 04:15 Cloudy 65 18.4 58 14.7 79 79 Calm 30.03 1017 10 16.09344 0 0
4:35 am 04:35 Cloudy 64 17.8 60 15.6 87 87 Calm 30.03 1017 10 16.09344 0 0
4:55 am 04:55 Cloudy 64 17.9 61 16 89 89 Calm 30.03 1017 10 16.09344 0 0
5:15 am 05:15 Cloudy 64 18 61 16.1 89 89 Calm 30.03 1017 10 16.09344 0 0
5:35 am 05:35 Cloudy 64 18 61 16 88 88 Calm 30.03 1017 10 16.09344 0 0
5:55 am 05:55 Cloudy 64 18 61 16 88 88 Calm 30.03 1017 10 16.09344 0 0
6:15 am 06:15 Cloudy 64 18 61 16 88 88 Calm 30.03 1017 10 16.09344 0 0
6:35 am 06:35 Cloudy 64 17.9 61 16.1 89 89 ENE 3 6 30.03 1017 10 16.09344 0 0
6:55 am 06:55 Cloudy 64 17.5 60 15.6 89 89 ENE 5 7 30.03 1017 10 16.09344 0 0
7:15 am 07:15 Partly Cloudy 63 17 59 15.2 89 89 ENE 5 7 30.06 1018 10 16.09344 0 0
7:35 am 07:35 Partly Cloudy 64 17.8 61 15.9 89 89 E 5 7 30.03 1017 10 16.09344 0 0
7:55 am 07:55 Mostly Cloudy 65 18.4 59 14.8 80 80 E 8 13 30.03 1017 10 16.09344 0 0
8:15 am 08:15 Mostly Cloudy 66 18.8 59 15 79 79 E 6 9 30.03 1017 10 16.09344 0 0
8:35 am 08:35 Cloudy 66 19 59 14.8 77 77 ESE 7 11 30.03 1017 10 16.09344 0 0
8:55 am 08:55 Cloudy 66 19 59 15.1 78 78 ESE 7 11 30.03 1017 10 16.09344 0 0
9:15 am 09:15 Cloudy 67 19.3 59 15.2 77 77 ESE 6 9 30.03 1017 10 16.09344 0 0
9:35 am 09:35 Cloudy 67 19.5 60 15.5 78 78 SE 6 9 30.06 1018 10 16.09344 0 0
9:55 am 09:55 Cloudy 68 19.8 60 15.7 77 77 SE 8 13 30.06 1018 10 16.09344 0 0
10:15 am 10:15 Cloudy with Light Rain 68 20 61 15.9 77 77 ESE 8 13 30.03 1017 10 16.09344 0 0
10:35 am 10:35 Mostly Cloudy 69 20.6 61 16.3 76 76 ESE 6 9 30.03 1017 10 16.09344 0 0
10:55 am 10:55 Cloudy 69 20.6 61 16 75 75 ESE 9 15 30.03 1017 10 16.09344 0 0
11:15 am 11:15 Mostly Cloudy 70 21.1 62 16.5 75 75 ESE 7 11 30 1016 10 16.09344 0 0
11:35 am 11:35 Cloudy 70 21.2 61 15.9 72 72 ESE 7 11 30 1016 10 16.09344 0 0
11:55 am 11:55 Cloudy 70 21.2 61 16.1 73 73 E 7 11 30 1016 10 16.09344 0 0
12:15 pm 12:15 Mostly Cloudy with Light Rain 70 21.1 61 15.9 72 72 E 9 15 30 1016 10 16.09344 0 0
12:35 pm 12:35 Cloudy 71 21.5 61 16.1 71 71 E 8 13 30 1016 10 16.09344 0 0
12:55 pm 12:55 Cloudy 72 22 61 16.3 70 70 ESE 8 13 30 1016 10 16.09344 0 0
1:15 pm 13:15 Cloudy 71 21.9 62 16.5 72 72 ESE 7 11 30 1016 10 16.09344 0 0
1:35 pm 13:35 Cloudy with Haze 72 22.2 62 16.7 71 71 ESE 8 13 30 1016 5 8.04672 0 0
1:55 pm 13:55 Cloudy 73 22.9 62 16.9 69 69 ESE 9 15 30 1016 10 16.09344 0 0
2:15 pm 14:15 Cloudy 74 23.2 62 16.5 66 66 SE 10 17 30 1016 10 16.09344 0 0
2:35 pm 14:35 Cloudy 74 23.3 62 16.5 66 66 ESE 9 15 29.97 1015 10 16.09344 0 0
2:55 pm 14:55 Cloudy 73 22.9 61 16.3 66 66 ESE 9 15 30 1016 10 16.09344 0 0
3:15 pm 15:15 Cloudy 73 22.6 61 16.3 68 68 E 9 15 30 1016 10 16.09344 0 0
3:35 pm 15:35 Cloudy 73 23 61 15.9 64 64 E 7 11 29.97 1015 10 16.09344 0 0
3:55 pm 15:55 Cloudy 76 24.2 61 16.1 61 61 E 12 19 29.94 1014 10 16.09344 0 0
4:15 pm 16:15 Cloudy 74 23.6 60 15.7 61 61 ESE 12 19 29.97 1015 10 16.09344 0 0
4:35 pm 16:35 Cloudy 74 23.6 60 15.5 61 61 ESE 7 11 29.97 1015 10 16.09344 0 0
4:55 pm 16:55 Cloudy 74 23.2 60 15.7 63 63 E 9 15 29.94 1014 10 16.09344 0 0
5:15 pm 17:15 Cloudy 74 23.4 60 15.8 62 62 E 10 17 29.94 1014 10 16.09344 0 0
5:35 pm 17:35 Cloudy 74 23.1 60 15.6 63 63 ESE 9 15 29.94 1014 10 16.09344 0 0
5:55 pm 17:55 Cloudy 74 23.1 60 15.5 62 62 E 7 11 29.94 1014 10 16.09344 0 0
6:15 pm 18:15 Cloudy 73 23 59 15.1 61 61 ESE 8 13 29.94 1014 10 16.09344 0 0
6:35 pm 18:35 Cloudy 73 22.7 59 15.1 62 62 ESE 8 13 29.94 1014 10 16.09344 0 0
6:55 pm 18:55 Cloudy 73 22.5 60 15.6 65 65 E 6 9 29.94 1014 10 16.09344 0 0
7:15 pm 19:15 Cloudy 73 22.5 60 15.6 65 65 ESE 7 11 29.94 1014 10 16.09344 0 0
7:35 pm 19:35 Cloudy 72 22.4 60 15.6 66 66 ESE 10 17 29.94 1014 10 16.09344 0 0
7:55 pm 19:55 Cloudy 72 22.1 60 15.3 65 65 ESE 9 15 29.94 1014 10 16.09344 0 0
8:15 pm 20:15 Cloudy 71 21.7 60 15.3 67 67 E 8 13 29.94 1014 10 16.09344 0 0
8:35 pm 20:35 Cloudy 71 21.5 60 15.5 69 69 E 7 11 29.94 1014 10 16.09344 0 0
8:55 pm 20:55 Cloudy 70 21.2 58 14.6 66 66 E 9 15 29.94 1014 10 16.09344 0 0
9:15 pm 21:15 Cloudy 70 21 58 14.3 66 66 E 8 13 29.94 1014 10 16.09344 0 0
9:35 pm 21:35 Cloudy 69 20.7 58 14.6 68 68 E 7 11 29.94 1014 10 16.09344 0 0
9:55 pm 21:55 Cloudy 69 20.5 59 14.9 70 70 E 9 15 29.94 1014 10 16.09344 0 0
10:15 pm 22:15 Cloudy 69 20.5 59 15.2 72 72 E 10 17 29.94 1014 10 16.09344 0 0
10:35 pm 22:35 Cloudy 69 20.5 60 15.3 72 72 E 8 13 29.97 1015 10 16.09344 0 0
10:55 pm 22:55 Cloudy 68 20.2 60 15.5 75 75 E 9 15 30 1016 10 16.09344 0 0
11:15 pm 23:15 Cloudy 68 20.1 60 15.6 75 75 ESE 6 9 30 1016 10 16.09344 0 0
11:35 pm 23:35 Cloudy 68 20.1 60 15.7 76 76 ESE 8 13 30 1016 10 16.09344 0 0
11:55 pm 23:55 Cloudy 68 20 60 15.7 76 76 ESE 7 11 30 1016 10 16.09344 0 0

Powered by AerisWeather